Year,Month,Day,Hour,Minute,Value (Times are PST for temperature in C)
2015,01,20,00,00,3.40
2015,01,20,00,01,3.40
2015,01,20,00,02,3.40
2015,01,20,00,03,3.40
2015,01,20,00,04,3.40
2015,01,20,00,05,3.40
2015,01,20,00,06,3.40
2015,01,20,00,07,3.30
2015,01,20,00,08,3.30
2015,01,20,00,09,3.30
2015,01,20,00,10,3.30
2015,01,20,00,11,3.30
2015,01,20,00,12,3.30
2015,01,20,00,13,3.40
2015,01,20,00,14,3.40
2015,01,20,00,15,3.40
2015,01,20,00,16,3.40
2015,01,20,00,17,3.40
2015,01,20,00,18,3.40
2015,01,20,00,19,3.40
2015,01,20,00,20,3.40
2015,01,20,00,21,3.40
2015,01,20,00,22,3.40
2015,01,20,00,23,3.40
2015,01,20,00,24,3.40
2015,01,20,00,25,3.40
2015,01,20,00,26,3.40
2015,01,20,00,27,3.40
2015,01,20,00,28,3.40
2015,01,20,00,29,3.40
2015,01,20,00,30,3.40
2015,01,20,00,31,3.40
2015,01,20,00,32,3.40
2015,01,20,00,33,3.40
2015,01,20,00,34,3.40
2015,01,20,00,35,3.40
2015,01,20,00,36,3.40
2015,01,20,00,37,3.40
2015,01,20,00,38,3.40
2015,01,20,00,39,3.40
2015,01,20,00,40,3.50
2015,01,20,00,41,3.40
2015,01,20,00,42,3.40
2015,01,20,00,43,3.40
2015,01,20,00,44,3.40
2015,01,20,00,45,3.40
2015,01,20,00,46,3.40
2015,01,20,00,47,3.40
2015,01,20,00,48,3.40
2015,01,20,00,49,3.40
2015,01,20,00,50,3.40
2015,01,20,00,51,3.40
2015,01,20,00,52,3.30
2015,01,20,00,53,3.30
2015,01,20,00,54,3.30
2015,01,20,00,55,3.30
2015,01,20,00,56,3.30
2015,01,20,00,57,3.30
2015,01,20,00,58,3.20
2015,01,20,00,59,3.20
2015,01,20,01,00,3.20
2015,01,20,01,01,3.20
2015,01,20,01,02,3.10
2015,01,20,01,03,3.10
2015,01,20,01,04,3.10
2015,01,20,01,05,3.10
2015,01,20,01,06,3.10
2015,01,20,01,07,3.10
2015,01,20,01,08,3.10
2015,01,20,01,09,3.10
2015,01,20,01,10,3.10
2015,01,20,01,11,3.10
2015,01,20,01,12,3.10
2015,01,20,01,13,3.20
2015,01,20,01,14,3.20
2015,01,20,01,15,3.20
2015,01,20,01,16,3.20
2015,01,20,01,17,3.30
2015,01,20,01,18,3.30
2015,01,20,01,19,3.30
2015,01,20,01,20,3.30
2015,01,20,01,21,3.30
2015,01,20,01,22,3.40
2015,01,20,01,23,3.40
2015,01,20,01,24,3.40
2015,01,20,01,25,3.40
2015,01,20,01,26,3.40
2015,01,20,01,27,3.40
2015,01,20,01,28,3.40
2015,01,20,01,29,3.40
2015,01,20,01,30,3.40
2015,01,20,01,31,3.40
2015,01,20,01,32,3.40
2015,01,20,01,33,3.40
2015,01,20,01,34,3.40
2015,01,20,01,35,3.40
2015,01,20,01,36,3.50
2015,01,20,01,37,3.50
2015,01,20,01,38,3.50
2015,01,20,01,39,3.50
2015,01,20,01,40,3.50
2015,01,20,01,41,3.50
2015,01,20,01,42,3.50
2015,01,20,01,43,3.60
2015,01,20,01,44,3.60
2015,01,20,01,45,3.60
2015,01,20,01,46,3.70
2015,01,20,01,47,3.70
2015,01,20,01,48,3.70
2015,01,20,01,49,3.70
2015,01,20,01,50,3.70
2015,01,20,01,51,3.80
2015,01,20,01,52,3.80
2015,01,20,01,53,3.80
2015,01,20,01,54,3.80
2015,01,20,01,55,3.80
2015,01,20,01,56,3.80
2015,01,20,01,57,3.80
2015,01,20,01,58,3.80
2015,01,20,01,59,3.80
2015,01,20,02,00,3.80
2015,01,20,02,01,3.80
2015,01,20,02,02,3.80
2015,01,20,02,03,3.80
2015,01,20,02,04,3.80
2015,01,20,02,05,3.80
2015,01,20,02,06,3.80
2015,01,20,02,07,3.80
2015,01,20,02,08,3.80
2015,01,20,02,09,3.80
2015,01,20,02,10,3.80
2015,01,20,02,11,3.80
2015,01,20,02,12,3.70
2015,01,20,02,13,3.70
2015,01,20,02,14,3.70
2015,01,20,02,15,3.70
2015,01,20,02,16,3.70
2015,01,20,02,17,3.70
2015,01,20,02,18,3.70
2015,01,20,02,19,3.70
2015,01,20,02,20,3.60
2015,01,20,02,21,3.60
2015,01,20,02,22,3.60
2015,01,20,02,23,3.60
2015,01,20,02,24,3.60
2015,01,20,02,25,3.60
2015,01,20,02,26,3.60
2015,01,20,02,27,3.60
2015,01,20,02,28,3.60
2015,01,20,02,29,3.60
2015,01,20,02,30,3.60
2015,01,20,02,31,3.50
2015,01,20,02,32,3.50
2015,01,20,02,33,3.50
2015,01,20,02,34,3.50
2015,01,20,02,35,3.50
2015,01,20,02,36,3.50
2015,01,20,02,37,3.50
2015,01,20,02,38,3.50
2015,01,20,02,39,3.50
2015,01,20,02,40,3.50
2015,01,20,02,41,3.50
2015,01,20,02,42,3.50
2015,01,20,02,43,3.50
2015,01,20,02,44,3.50
2015,01,20,02,45,3.40
2015,01,20,02,46,3.40
2015,01,20,02,47,3.40
2015,01,20,02,48,3.40
2015,01,20,02,49,3.40
2015,01,20,02,50,3.40
2015,01,20,02,51,3.40
2015,01,20,02,52,3.40
2015,01,20,02,53,3.40
2015,01,20,02,54,3.40
2015,01,20,02,55,3.40
2015,01,20,02,56,3.40
2015,01,20,02,57,3.40
2015,01,20,02,58,3.40
2015,01,20,02,59,3.40
2015,01,20,03,00,3.40
2015,01,20,03,01,3.40
2015,01,20,03,02,3.40
2015,01,20,03,03,3.40
2015,01,20,03,04,3.40
2015,01,20,03,05,3.40
2015,01,20,03,06,3.40
2015,01,20,03,07,3.40
2015,01,20,03,08,3.50
2015,01,20,03,09,3.50
2015,01,20,03,10,3.50
2015,01,20,03,11,3.50
2015,01,20,03,12,3.40
2015,01,20,03,13,3.40
2015,01,20,03,14,3.40
2015,01,20,03,15,3.40
2015,01,20,03,16,3.40
2015,01,20,03,17,3.40
2015,01,20,03,18,3.40
2015,01,20,03,19,3.40
2015,01,20,03,20,3.40
2015,01,20,03,21,3.40
2015,01,20,03,22,3.40
2015,01,20,03,23,3.40
2015,01,20,03,24,3.30
2015,01,20,03,25,3.30
2015,01,20,03,26,3.30
2015,01,20,03,27,3.30
2015,01,20,03,28,3.30
2015,01,20,03,29,3.30
2015,01,20,03,30,3.30
2015,01,20,03,31,3.30
2015,01,20,03,32,3.30
2015,01,20,03,33,3.30
2015,01,20,03,34,3.20
2015,01,20,03,35,3.20
2015,01,20,03,36,3.20
2015,01,20,03,37,3.20
2015,01,20,03,38,3.20
2015,01,20,03,39,3.20
2015,01,20,03,40,3.20
2015,01,20,03,41,3.10
2015,01,20,03,42,3.10
2015,01,20,03,43,3.10
2015,01,20,03,44,3.10
2015,01,20,03,45,3.10
2015,01,20,03,46,3.00
2015,01,20,03,47,3.00
2015,01,20,03,48,3.00
2015,01,20,03,49,3.00
2015,01,20,03,50,2.90
2015,01,20,03,51,2.90
2015,01,20,03,52,2.90
2015,01,20,03,53,2.80
2015,01,20,03,54,2.80
2015,01,20,03,55,2.80
2015,01,20,03,56,2.80
2015,01,20,03,57,2.80
2015,01,20,03,58,2.80
2015,01,20,03,59,2.80
2015,01,20,04,00,2.80
2015,01,20,04,01,2.80
2015,01,20,04,02,2.80
2015,01,20,04,03,2.70
2015,01,20,04,04,2.70
2015,01,20,04,05,2.70
2015,01,20,04,06,2.80
2015,01,20,04,07,2.80
2015,01,20,04,08,2.80
2015,01,20,04,09,2.80
2015,01,20,04,10,2.90
2015,01,20,04,11,2.80
2015,01,20,04,12,2.80
2015,01,20,04,13,2.80
2015,01,20,04,14,2.80
2015,01,20,04,15,2.80
2015,01,20,04,16,2.70
2015,01,20,04,17,2.70
2015,01,20,04,18,2.70
2015,01,20,04,19,2.70
2015,01,20,04,20,2.70
2015,01,20,04,21,2.70
2015,01,20,04,22,2.60
2015,01,20,04,23,2.60
2015,01,20,04,24,2.60
2015,01,20,04,25,2.60
2015,01,20,04,26,2.60
2015,01,20,04,27,2.50
2015,01,20,04,28,2.50
2015,01,20,04,29,2.50
2015,01,20,04,30,2.50
2015,01,20,04,31,2.40
2015,01,20,04,32,2.40
2015,01,20,04,33,2.40
2015,01,20,04,34,2.30
2015,01,20,04,35,2.30
2015,01,20,04,36,2.30
2015,01,20,04,37,2.30
2015,01,20,04,38,2.30
2015,01,20,04,39,2.30
2015,01,20,04,40,2.30
2015,01,20,04,41,2.30
2015,01,20,04,42,2.30
2015,01,20,04,43,2.30
2015,01,20,04,44,2.30
2015,01,20,04,45,2.30
2015,01,20,04,46,2.30
2015,01,20,04,47,2.30
2015,01,20,04,48,2.20
2015,01,20,04,49,2.20
2015,01,20,04,50,2.20
2015,01,20,04,51,2.20
2015,01,20,04,52,2.10
2015,01,20,04,53,2.10
2015,01,20,04,54,2.10
2015,01,20,04,55,2.10
2015,01,20,04,56,2.10
2015,01,20,04,57,2.10
2015,01,20,04,58,2.10
2015,01,20,04,59,2.10
2015,01,20,05,00,2.00
2015,01,20,05,01,2.10
2015,01,20,05,02,2.10
2015,01,20,05,03,2.10
2015,01,20,05,04,2.10
2015,01,20,05,05,2.20
2015,01,20,05,06,2.20
2015,01,20,05,07,2.20
2015,01,20,05,08,2.30
2015,01,20,05,09,2.30
2015,01,20,05,10,2.30
2015,01,20,05,11,2.30
2015,01,20,05,12,2.40
2015,01,20,05,13,2.40
2015,01,20,05,14,2.40
2015,01,20,05,15,2.40
2015,01,20,05,16,2.50
2015,01,20,05,17,2.50
2015,01,20,05,18,2.50
2015,01,20,05,19,2.50
2015,01,20,05,20,2.60
2015,01,20,05,21,2.60
2015,01,20,05,22,2.60
2015,01,20,05,23,2.60
2015,01,20,05,24,2.60
2015,01,20,05,25,2.60
2015,01,20,05,26,2.60
2015,01,20,05,27,2.60
2015,01,20,05,28,2.60
2015,01,20,05,29,2.70
2015,01,20,05,30,2.70
2015,01,20,05,31,2.70
2015,01,20,05,32,2.70
2015,01,20,05,33,2.70
2015,01,20,05,34,2.70
2015,01,20,05,35,2.60
2015,01,20,05,36,2.60
2015,01,20,05,37,2.60
2015,01,20,05,38,2.60
2015,01,20,05,39,2.60
2015,01,20,05,40,2.60
2015,01,20,05,41,2.50
2015,01,20,05,42,2.50
2015,01,20,05,43,2.50
2015,01,20,05,44,2.40
2015,01,20,05,45,2.40
2015,01,20,05,46,2.40
2015,01,20,05,47,2.40
2015,01,20,05,48,2.40
2015,01,20,05,49,2.40
2015,01,20,05,50,2.40
2015,01,20,05,51,2.40
2015,01,20,05,52,2.40
2015,01,20,05,53,2.40
2015,01,20,05,54,2.40
2015,01,20,05,55,2.40
2015,01,20,05,56,2.50
2015,01,20,05,57,2.50
2015,01,20,05,58,2.50
2015,01,20,05,59,2.50
2015,01,20,06,00,2.60
2015,01,20,06,01,2.60
2015,01,20,06,02,2.60
2015,01,20,06,03,2.60
2015,01,20,06,04,2.60
2015,01,20,06,05,2.60
2015,01,20,06,06,2.70
2015,01,20,06,07,2.70
2015,01,20,06,08,2.70
2015,01,20,06,09,2.70
2015,01,20,06,10,2.80
2015,01,20,06,11,2.80
2015,01,20,06,12,2.80
2015,01,20,06,13,2.90
2015,01,20,06,14,2.90
2015,01,20,06,15,3.00
2015,01,20,06,16,3.00
2015,01,20,06,17,3.10
2015,01,20,06,18,3.10
2015,01,20,06,19,3.10
2015,01,20,06,20,3.10
2015,01,20,06,21,3.20
2015,01,20,06,22,3.20
2015,01,20,06,23,3.20
2015,01,20,06,24,3.20
2015,01,20,06,25,3.30
2015,01,20,06,26,3.30
2015,01,20,06,27,3.30
2015,01,20,06,28,3.30
2015,01,20,06,29,3.30
2015,01,20,06,30,3.30
2015,01,20,06,31,3.40
2015,01,20,06,32,3.40
2015,01,20,06,33,3.40
2015,01,20,06,34,3.40
2015,01,20,06,35,3.40
2015,01,20,06,36,3.50
2015,01,20,06,37,3.50
2015,01,20,06,38,3.50
2015,01,20,06,39,3.50
2015,01,20,06,40,3.50
2015,01,20,06,41,3.60
2015,01,20,06,42,3.60
2015,01,20,06,43,3.60
2015,01,20,06,44,3.60
2015,01,20,06,45,3.60
2015,01,20,06,46,3.60
2015,01,20,06,47,3.60
2015,01,20,06,48,3.60
2015,01,20,06,49,3.60
2015,01,20,06,50,3.60
2015,01,20,06,51,3.60
2015,01,20,06,52,3.60
2015,01,20,06,53,3.60
2015,01,20,06,54,3.60
2015,01,20,06,55,3.60
2015,01,20,06,56,3.60
2015,01,20,06,57,3.70
2015,01,20,06,58,3.70
2015,01,20,06,59,3.70
2015,01,20,07,00,3.70
2015,01,20,07,01,3.70
2015,01,20,07,02,3.80
2015,01,20,07,03,3.80
2015,01,20,07,04,3.80
2015,01,20,07,05,3.80
2015,01,20,07,06,3.80
2015,01,20,07,07,3.80
2015,01,20,07,08,3.90
2015,01,20,07,09,3.90
2015,01,20,07,10,4.00
2015,01,20,07,11,4.00
2015,01,20,07,12,4.10
2015,01,20,07,13,4.10
2015,01,20,07,14,4.10
2015,01,20,07,15,4.20
2015,01,20,07,16,4.20
2015,01,20,07,17,4.30
2015,01,20,07,18,4.30
2015,01,20,07,19,4.30
2015,01,20,07,20,4.30
2015,01,20,07,21,4.30
2015,01,20,07,22,4.40
2015,01,20,07,23,4.40
2015,01,20,07,24,4.40
2015,01,20,07,25,4.40
2015,01,20,07,26,4.40
2015,01,20,07,27,4.40
2015,01,20,07,28,4.50
2015,01,20,07,29,4.50
2015,01,20,07,30,4.50
2015,01,20,07,31,4.50
2015,01,20,07,32,4.60
2015,01,20,07,33,4.60
2015,01,20,07,34,4.60
2015,01,20,07,35,4.60
2015,01,20,07,36,4.60
2015,01,20,07,37,4.60
2015,01,20,07,38,4.60
2015,01,20,07,39,4.60
2015,01,20,07,40,4.60
2015,01,20,07,41,4.70
2015,01,20,07,42,4.70
2015,01,20,07,43,4.70
2015,01,20,07,44,4.70
2015,01,20,07,45,4.70
2015,01,20,07,46,4.70
2015,01,20,07,47,4.70
2015,01,20,07,48,4.70
2015,01,20,07,49,4.70
2015,01,20,07,50,4.70
2015,01,20,07,51,4.80
2015,01,20,07,52,4.80
2015,01,20,07,53,4.80
2015,01,20,07,54,4.80
2015,01,20,07,55,4.80
2015,01,20,07,56,4.80
2015,01,20,07,57,4.80
2015,01,20,07,58,4.80
2015,01,20,07,59,4.80
2015,01,20,08,00,4.90
2015,01,20,08,01,4.90
2015,01,20,08,02,4.90
2015,01,20,08,03,4.90
2015,01,20,08,04,4.90
2015,01,20,08,05,4.90
2015,01,20,08,06,4.90
2015,01,20,08,07,4.90
2015,01,20,08,08,4.90
2015,01,20,08,09,4.90
2015,01,20,08,10,4.90
2015,01,20,08,11,4.90
2015,01,20,08,12,4.90
2015,01,20,08,13,4.90
2015,01,20,08,14,4.90
2015,01,20,08,15,4.90
2015,01,20,08,16,4.90
2015,01,20,08,17,5.00
2015,01,20,08,18,5.00
2015,01,20,08,19,5.00
2015,01,20,08,20,5.00
2015,01,20,08,21,5.00
2015,01,20,08,22,5.00
2015,01,20,08,23,5.10
2015,01,20,08,24,5.10
2015,01,20,08,25,5.10
2015,01,20,08,26,5.10
2015,01,20,08,27,5.10
2015,01,20,08,28,5.10
2015,01,20,08,29,5.10
2015,01,20,08,30,5.10
2015,01,20,08,31,5.00
2015,01,20,08,32,5.00
2015,01,20,08,33,5.00
2015,01,20,08,34,5.00
2015,01,20,08,35,4.90
2015,01,20,08,36,4.90
2015,01,20,08,37,4.90
2015,01,20,08,38,4.90
2015,01,20,08,39,4.90
2015,01,20,08,40,4.90
2015,01,20,08,41,4.90
2015,01,20,08,42,4.90
2015,01,20,08,43,4.90
2015,01,20,08,44,4.90
2015,01,20,08,45,4.90
2015,01,20,08,46,4.90
2015,01,20,08,47,4.90
2015,01,20,08,48,4.90
2015,01,20,08,49,4.90
2015,01,20,08,50,4.90
2015,01,20,08,51,4.90
2015,01,20,08,52,4.90
2015,01,20,08,53,4.90
2015,01,20,08,54,4.90
2015,01,20,08,55,4.90
2015,01,20,08,56,4.90
2015,01,20,08,57,4.90
2015,01,20,08,58,4.90
2015,01,20,08,59,4.90
2015,01,20,09,00,4.90
2015,01,20,09,01,4.90
2015,01,20,09,02,4.90
2015,01,20,09,03,4.90
2015,01,20,09,04,4.90
2015,01,20,09,05,4.90
2015,01,20,09,06,4.90
2015,01,20,09,07,4.90
2015,01,20,09,08,4.90
2015,01,20,09,09,4.90
2015,01,20,09,10,4.90
2015,01,20,09,11,4.90
2015,01,20,09,12,4.90
2015,01,20,09,13,4.90
2015,01,20,09,14,4.90
2015,01,20,09,15,4.90
2015,01,20,09,16,5.00
2015,01,20,09,17,5.00
2015,01,20,09,18,5.00
2015,01,20,09,19,5.10
2015,01,20,09,20,5.10
2015,01,20,09,21,5.10
2015,01,20,09,22,5.10
2015,01,20,09,23,5.10
2015,01,20,09,24,5.20
2015,01,20,09,25,5.20
2015,01,20,09,26,5.20
2015,01,20,09,27,5.20
2015,01,20,09,28,5.20
2015,01,20,09,29,5.20
2015,01,20,09,30,5.20
2015,01,20,09,31,5.20
2015,01,20,09,32,5.20
2015,01,20,09,33,5.20
2015,01,20,09,34,5.20
2015,01,20,09,35,5.20
2015,01,20,09,36,5.20
2015,01,20,09,37,5.20
2015,01,20,09,38,5.30
2015,01,20,09,39,5.30
2015,01,20,09,40,5.30
2015,01,20,09,41,5.30
2015,01,20,09,42,5.30
2015,01,20,09,43,5.30
2015,01,20,09,44,5.30
2015,01,20,09,45,5.30
2015,01,20,09,46,5.30
2015,01,20,09,47,5.30
2015,01,20,09,48,5.30
2015,01,20,09,49,5.30
2015,01,20,09,50,5.30
2015,01,20,09,51,5.30
2015,01,20,09,52,5.30
2015,01,20,09,53,5.40
2015,01,20,09,54,5.40
2015,01,20,09,55,5.40
2015,01,20,09,56,5.40
2015,01,20,09,57,5.40
2015,01,20,09,58,5.40
2015,01,20,09,59,5.40
2015,01,20,10,00,5.40
2015,01,20,10,01,5.50
2015,01,20,10,02,5.50
2015,01,20,10,03,5.50
2015,01,20,10,04,5.50
2015,01,20,10,05,5.50
2015,01,20,10,06,5.60
2015,01,20,10,07,5.60
2015,01,20,10,08,5.60
2015,01,20,10,09,5.60
2015,01,20,10,10,5.70
2015,01,20,10,11,5.70
2015,01,20,10,12,5.70
2015,01,20,10,13,5.80
2015,01,20,10,14,5.80
2015,01,20,10,15,5.80
2015,01,20,10,16,5.90
2015,01,20,10,17,5.90
2015,01,20,10,18,5.90
2015,01,20,10,19,5.90
2015,01,20,10,20,5.90
2015,01,20,10,21,6.00
2015,01,20,10,22,6.10
2015,01,20,10,23,6.10
2015,01,20,10,24,6.10
2015,01,20,10,25,6.10
2015,01,20,10,26,6.10
2015,01,20,10,27,6.10
2015,01,20,10,28,6.20
2015,01,20,10,29,6.20
2015,01,20,10,30,6.20
2015,01,20,10,31,6.20
2015,01,20,10,32,6.20
2015,01,20,10,33,6.20
2015,01,20,10,34,6.20
2015,01,20,10,35,6.20
2015,01,20,10,36,6.20
2015,01,20,10,37,6.20
2015,01,20,10,38,6.20
2015,01,20,10,39,6.30
2015,01,20,10,40,6.30
2015,01,20,10,41,6.30
2015,01,20,10,42,6.30
2015,01,20,10,43,6.40
2015,01,20,10,44,6.40
2015,01,20,10,45,6.40
2015,01,20,10,46,6.40
2015,01,20,10,47,6.40
2015,01,20,10,48,6.50
2015,01,20,10,49,6.50
2015,01,20,10,50,6.50
2015,01,20,10,51,6.50
2015,01,20,10,52,6.60
2015,01,20,10,53,6.60
2015,01,20,10,54,6.60
2015,01,20,10,55,6.60
2015,01,20,10,56,6.60
2015,01,20,10,57,6.60
2015,01,20,10,58,6.60
2015,01,20,10,59,6.60
2015,01,20,11,00,6.70
2015,01,20,11,01,6.70
2015,01,20,11,02,6.70
2015,01,20,11,03,6.70
2015,01,20,11,04,6.70
2015,01,20,11,05,6.70
2015,01,20,11,06,6.70
2015,01,20,11,07,6.70
2015,01,20,11,08,6.70
2015,01,20,11,09,6.70
2015,01,20,11,10,6.70
2015,01,20,11,11,6.80
2015,01,20,11,12,6.80
2015,01,20,11,13,6.80
2015,01,20,11,14,6.80
2015,01,20,11,15,6.80
2015,01,20,11,16,6.80
2015,01,20,11,17,6.80
2015,01,20,11,18,6.80
2015,01,20,11,19,6.80
2015,01,20,11,20,6.80
2015,01,20,11,21,6.90
2015,01,20,11,22,6.90
2015,01,20,11,23,6.90
2015,01,20,11,24,6.90
2015,01,20,11,25,6.90
2015,01,20,11,26,6.90
2015,01,20,11,27,6.90
2015,01,20,11,28,7.00
2015,01,20,11,29,7.00
2015,01,20,11,30,7.00
2015,01,20,11,31,7.00
2015,01,20,11,32,7.10
2015,01,20,11,33,7.10
2015,01,20,11,34,7.10
2015,01,20,11,35,7.10
2015,01,20,11,36,7.20
2015,01,20,11,37,7.20
2015,01,20,11,38,7.20
2015,01,20,11,39,7.20
2015,01,20,11,40,7.20
2015,01,20,11,41,7.20
2015,01,20,11,42,7.20
2015,01,20,11,43,7.20
2015,01,20,11,44,7.20
2015,01,20,11,45,7.20
2015,01,20,11,46,7.20
2015,01,20,11,47,7.20
2015,01,20,11,48,7.20
2015,01,20,11,49,7.20
2015,01,20,11,50,7.20
2015,01,20,11,51,7.20
2015,01,20,11,52,7.20
2015,01,20,11,53,7.20
2015,01,20,11,54,7.20
2015,01,20,11,55,7.20
2015,01,20,11,56,7.20
2015,01,20,11,57,7.20
2015,01,20,11,58,7.20
2015,01,20,11,59,7.20
2015,01,20,12,00,7.20
2015,01,20,12,01,7.20
2015,01,20,12,02,7.20
2015,01,20,12,03,7.20
2015,01,20,12,04,7.20
2015,01,20,12,05,7.20
2015,01,20,12,06,7.20
2015,01,20,12,07,7.20
2015,01,20,12,08,7.20
2015,01,20,12,09,7.20
2015,01,20,12,10,7.20
2015,01,20,12,11,7.20
2015,01,20,12,12,7.20
2015,01,20,12,13,7.20
2015,01,20,12,14,7.20
2015,01,20,12,15,7.20
2015,01,20,12,16,7.20
2015,01,20,12,17,7.20
2015,01,20,12,18,7.20
2015,01,20,12,19,7.20
2015,01,20,12,20,7.20
2015,01,20,12,21,7.20
2015,01,20,12,22,7.20
2015,01,20,12,23,7.20
2015,01,20,12,24,7.10
2015,01,20,12,25,7.10
2015,01,20,12,26,7.10
2015,01,20,12,27,7.10
2015,01,20,12,28,7.10
2015,01,20,12,29,7.10
2015,01,20,12,30,7.10
2015,01,20,12,31,7.10
2015,01,20,12,32,7.10
2015,01,20,12,33,7.10
2015,01,20,12,34,7.10
2015,01,20,12,35,7.10
2015,01,20,12,36,7.10
2015,01,20,12,37,7.10
2015,01,20,12,38,7.10
2015,01,20,12,39,7.10
2015,01,20,12,40,7.10
2015,01,20,12,41,7.10
2015,01,20,12,42,7.10
2015,01,20,12,43,7.10
2015,01,20,12,44,7.20
2015,01,20,12,45,7.20
2015,01,20,12,46,7.20
2015,01,20,12,47,7.20
2015,01,20,12,48,7.20
2015,01,20,12,49,7.20
2015,01,20,12,50,7.20
2015,01,20,12,51,7.20
2015,01,20,12,52,7.20
2015,01,20,12,53,7.20
2015,01,20,12,54,7.30
2015,01,20,12,55,7.30
2015,01,20,12,56,7.30
2015,01,20,12,57,7.30
2015,01,20,12,58,7.30
2015,01,20,12,59,7.30
2015,01,20,13,00,7.40
2015,01,20,13,01,7.40
2015,01,20,13,02,7.40
2015,01,20,13,03,7.40
2015,01,20,13,04,7.40
2015,01,20,13,05,7.40
2015,01,20,13,06,7.40
2015,01,20,13,07,7.40
2015,01,20,13,08,7.30
2015,01,20,13,09,7.30
2015,01,20,13,10,7.30
2015,01,20,13,11,7.30
2015,01,20,13,12,7.30
2015,01,20,13,13,7.30
2015,01,20,13,14,7.20
2015,01,20,13,15,7.20
2015,01,20,13,16,7.20
2015,01,20,13,17,7.20
2015,01,20,13,18,7.20
2015,01,20,13,19,7.20
2015,01,20,13,20,7.20
2015,01,20,13,21,7.20
2015,01,20,13,22,7.20
2015,01,20,13,23,7.20
2015,01,20,13,24,7.10
2015,01,20,13,25,7.10
2015,01,20,13,26,7.20
2015,01,20,13,27,7.20
2015,01,20,13,28,7.20
2015,01,20,13,29,7.20
2015,01,20,13,30,7.20
2015,01,20,13,31,7.10
2015,01,20,13,32,7.10
2015,01,20,13,33,7.10
2015,01,20,13,34,7.00
2015,01,20,13,35,7.00
2015,01,20,13,36,7.00
2015,01,20,13,37,7.00
2015,01,20,13,38,7.00
2015,01,20,13,39,7.00
2015,01,20,13,40,7.00
2015,01,20,13,41,7.00
2015,01,20,13,42,7.00
2015,01,20,13,43,7.00
2015,01,20,13,44,7.00
2015,01,20,13,45,7.00
2015,01,20,13,46,7.00
2015,01,20,13,47,7.00
2015,01,20,13,48,7.00
2015,01,20,13,49,7.00
2015,01,20,13,50,7.00
2015,01,20,13,51,7.00
2015,01,20,13,52,7.00
2015,01,20,13,53,7.10
2015,01,20,13,54,7.10
2015,01,20,13,55,7.10
2015,01,20,13,56,7.10
2015,01,20,13,57,7.10
2015,01,20,13,58,7.10
2015,01,20,13,59,7.10
2015,01,20,14,00,7.10
2015,01,20,14,01,7.10
2015,01,20,14,02,7.10
2015,01,20,14,03,7.10
2015,01,20,14,04,7.10
2015,01,20,14,05,7.10
2015,01,20,14,06,7.10
2015,01,20,14,07,7.10
2015,01,20,14,08,7.10
2015,01,20,14,09,7.10
2015,01,20,14,10,7.10
2015,01,20,14,11,7.10
2015,01,20,14,12,7.10
2015,01,20,14,13,7.10
2015,01,20,14,14,7.10
2015,01,20,14,15,7.10
2015,01,20,14,16,7.10
2015,01,20,14,17,7.10
2015,01,20,14,18,7.10
2015,01,20,14,19,7.10
2015,01,20,14,20,7.10
2015,01,20,14,21,7.10
2015,01,20,14,22,7.10
2015,01,20,14,23,7.10
2015,01,20,14,24,7.10
2015,01,20,14,25,7.10
2015,01,20,14,26,7.10
2015,01,20,14,27,7.10
2015,01,20,14,28,7.10
2015,01,20,14,29,7.20
2015,01,20,14,30,7.20
2015,01,20,14,31,7.20
2015,01,20,14,32,7.20
2015,01,20,14,33,7.20
2015,01,20,14,34,7.20
2015,01,20,14,35,7.20
2015,01,20,14,36,7.20
2015,01,20,14,37,7.20
2015,01,20,14,38,7.20
2015,01,20,14,39,7.20
2015,01,20,14,40,7.20
2015,01,20,14,41,7.20
2015,01,20,14,42,7.20
2015,01,20,14,43,7.20
2015,01,20,14,44,7.20
2015,01,20,14,45,7.20
2015,01,20,14,46,7.20
2015,01,20,14,47,7.20
2015,01,20,14,48,7.20
2015,01,20,14,49,7.20
2015,01,20,14,50,7.20
2015,01,20,14,51,7.20
2015,01,20,14,52,7.20
2015,01,20,14,53,7.20
2015,01,20,14,54,7.20
2015,01,20,14,55,7.20
2015,01,20,14,56,7.20
2015,01,20,14,57,7.20
2015,01,20,14,58,7.20
2015,01,20,14,59,7.20
2015,01,20,15,00,7.20
2015,01,20,15,01,7.20
2015,01,20,15,02,7.20
2015,01,20,15,03,7.20
2015,01,20,15,04,7.20
2015,01,20,15,05,7.20
2015,01,20,15,06,7.20
2015,01,20,15,07,7.20
2015,01,20,15,08,7.20
2015,01,20,15,09,7.10
2015,01,20,15,10,7.10
2015,01,20,15,11,7.10
2015,01,20,15,12,7.10
2015,01,20,15,13,7.20
2015,01,20,15,14,7.20
2015,01,20,15,15,7.20
2015,01,20,15,16,7.20
2015,01,20,15,17,7.20
2015,01,20,15,18,7.20
2015,01,20,15,19,7.20
2015,01,20,15,20,7.20
2015,01,20,15,21,7.20
2015,01,20,15,22,7.20
2015,01,20,15,23,7.20
2015,01,20,15,24,7.20
2015,01,20,15,25,7.20
2015,01,20,15,26,7.20
2015,01,20,15,27,7.20
2015,01,20,15,28,7.20
2015,01,20,15,29,7.20
2015,01,20,15,30,7.20
2015,01,20,15,31,7.20
2015,01,20,15,32,7.20
2015,01,20,15,33,7.20
2015,01,20,15,34,7.20
2015,01,20,15,35,7.20
2015,01,20,15,36,7.20
2015,01,20,15,37,7.20
2015,01,20,15,38,7.20
2015,01,20,15,39,7.20
2015,01,20,15,40,7.20
2015,01,20,15,41,7.20
2015,01,20,15,42,7.20
2015,01,20,15,43,7.20
2015,01,20,15,44,7.20
2015,01,20,15,45,7.20
2015,01,20,15,46,7.20
2015,01,20,15,47,7.30
2015,01,20,15,48,7.30
2015,01,20,15,49,7.30
2015,01,20,15,50,7.30
2015,01,20,15,51,7.30
2015,01,20,15,52,7.30
2015,01,20,15,53,7.30
2015,01,20,15,54,7.30
2015,01,20,15,55,7.30
2015,01,20,15,56,7.20
2015,01,20,15,57,7.20
2015,01,20,15,58,7.20
2015,01,20,15,59,7.20
2015,01,20,16,00,7.20
2015,01,20,16,01,7.20
2015,01,20,16,02,7.20
2015,01,20,16,03,7.20
2015,01,20,16,04,7.20
2015,01,20,16,05,7.20
2015,01,20,16,06,7.10
2015,01,20,16,07,7.10
2015,01,20,16,08,7.00
2015,01,20,16,09,7.00
2015,01,20,16,10,7.00
2015,01,20,16,11,6.90
2015,01,20,16,12,6.90
2015,01,20,16,13,6.90
2015,01,20,16,14,6.90
2015,01,20,16,15,6.80
2015,01,20,16,16,6.80
2015,01,20,16,17,6.80
2015,01,20,16,18,6.80
2015,01,20,16,19,6.80
2015,01,20,16,20,6.80
2015,01,20,16,21,6.70
2015,01,20,16,22,6.70
2015,01,20,16,23,6.70
2015,01,20,16,24,6.70
2015,01,20,16,25,6.70
2015,01,20,16,26,6.70
2015,01,20,16,27,6.70
2015,01,20,16,28,6.70
2015,01,20,16,29,6.70
2015,01,20,16,30,6.70
2015,01,20,16,31,6.60
2015,01,20,16,32,6.60
2015,01,20,16,33,6.60
2015,01,20,16,34,6.60
2015,01,20,16,35,6.50
2015,01,20,16,36,6.50
2015,01,20,16,37,6.40
2015,01,20,16,38,6.40
2015,01,20,16,39,6.40
2015,01,20,16,40,6.30
2015,01,20,16,41,6.30
2015,01,20,16,42,6.20
2015,01,20,16,43,6.20
2015,01,20,16,44,6.20
2015,01,20,16,45,6.10
2015,01,20,16,46,6.10
2015,01,20,16,47,6.10
2015,01,20,16,48,6.00
2015,01,20,16,49,6.00
2015,01,20,16,50,5.90
2015,01,20,16,51,5.90
2015,01,20,16,52,5.90
2015,01,20,16,53,5.80
2015,01,20,16,54,5.80
2015,01,20,16,55,5.70
2015,01,20,16,56,5.70
2015,01,20,16,57,5.60
2015,01,20,16,58,5.60
2015,01,20,16,59,5.60
2015,01,20,17,00,5.50
2015,01,20,17,01,5.50
2015,01,20,17,02,5.40
2015,01,20,17,03,5.40
2015,01,20,17,04,5.40
2015,01,20,17,05,5.30
2015,01,20,17,06,5.30
2015,01,20,17,07,5.20
2015,01,20,17,08,5.20
2015,01,20,17,09,5.10
2015,01,20,17,10,5.10
2015,01,20,17,11,5.00
2015,01,20,17,12,5.00
2015,01,20,17,13,4.90
2015,01,20,17,14,4.90
2015,01,20,17,15,4.80
2015,01,20,17,16,4.80
2015,01,20,17,17,4.80
2015,01,20,17,18,4.80
2015,01,20,17,19,4.70
2015,01,20,17,20,4.70
2015,01,20,17,21,4.70
2015,01,20,17,22,4.70
2015,01,20,17,23,4.60
2015,01,20,17,24,4.60
2015,01,20,17,25,4.60
2015,01,20,17,26,4.50
2015,01,20,17,27,4.50
2015,01,20,17,28,4.40
2015,01,20,17,29,4.40
2015,01,20,17,30,4.40
2015,01,20,17,31,4.40
2015,01,20,17,32,4.40
2015,01,20,17,33,4.40
2015,01,20,17,34,4.30
2015,01,20,17,35,4.30
2015,01,20,17,36,4.30
2015,01,20,17,37,4.30
2015,01,20,17,38,4.30
2015,01,20,17,39,4.30
2015,01,20,17,40,4.30
2015,01,20,17,41,4.30
2015,01,20,17,42,4.30
2015,01,20,17,43,4.20
2015,01,20,17,44,4.20
2015,01,20,17,45,4.20
2015,01,20,17,46,4.20
2015,01,20,17,47,4.10
2015,01,20,17,48,4.10
2015,01,20,17,49,4.10
2015,01,20,17,50,4.10
2015,01,20,17,51,4.10
2015,01,20,17,52,4.10
2015,01,20,17,53,4.00
2015,01,20,17,54,4.00
2015,01,20,17,55,4.00
2015,01,20,17,56,4.00
2015,01,20,17,57,3.90
2015,01,20,17,58,3.90
2015,01,20,17,59,3.90
2015,01,20,18,00,3.90
2015,01,20,18,01,3.90
2015,01,20,18,02,3.90
2015,01,20,18,03,3.90
2015,01,20,18,04,3.90
2015,01,20,18,05,3.90
2015,01,20,18,06,3.80